Theta_e
316 317 320 323 322 321 321 319 322 324 321 318 320 321 322 321 321 323 320 316 316 317 316 314 311 310 312 313 313 314 316 317 319 320 319 319 319 319 320 319 319 319 320 320 321 320 319 319 321 324 327 328 329 331 333 334 335 334 333 333 333 332 331 330 328 325 324 324 326 326 326 326 326 327 328 327 326 324 324 325 326 326 326 326 326
318 320 321 322 321 322 322 321 321 323 322 321 320 321 323 322 321 322 319 317 316 315 317 317 312 308 309 312 312 312 315 316 318 319 318 319 318 318 319 319 319 319 319 320 321 321 321 321 320 320 322 325 327 328 329 332 334 334 334 333 332 332 331 329 328 326 324 325 327 327 327 327 326 326 326 326 325 324 325 326 327 326 326 325 326
319 320 321 321 321 322 322 322 321 321 322 323 322 322 323 322 321 322 318 316 315 312 313 314 309 305 305 309 310 311 313 315 316 318 318 319 318 318 318 318 318 319 319 320 320 320 321 322 323 323 323 323 325 327 329 331 333 334 333 333 332 331 330 330 328 327 325 325 326 326 326 326 326 326 326 325 325 326 326 327 327 326 325 325 326
320 320 321 322 321 321 322 322 322 323 323 324 323 323 323 321 321 322 317 316 314 309 306 308 307 307 308 310 312 312 314 315 317 319 319 317 317 316 316 317 317 317 318 319 320 320 321 322 323 324 324 324 324 325 327 329 332 333 333 332 331 330 329 329 328 327 325 325 325 326 326 326 326 327 327 326 325 326 327 327 328 326 325 325 325
320 320 321 322 321 321 322 321 322 324 323 323 324 324 323 322 322 321 317 315 312 306 302 307 311 313 314 315 315 315 315 316 317 317 317 316 316 316 315 316 316 316 317 318 319 320 320 321 322 323 325 325 325 324 324 326 327 328 332 332 330 330 328 328 328 327 326 325 324 325 326 326 325 326 328 328 326 326 327 328 328 327 325 324 325
320 320 321 322 321 321 320 321 322 323 322 323 325 324 322 323 322 319 316 315 309 304 302 306 313 315 313 314 314 314 314 314 315 315 315 315 315 315 315 315 315 315 316 317 318 319 320 321 321 322 324 325 326 326 326 327 326 327 331 332 330 330 328 327 328 328 327 325 324 325 325 326 327 326 328 328 328 328 326 327 327 326 325 325 326
321 322 321 320 319 319 320 322 323 322 322 325 325 324 322 323 322 317 316 314 308 303 302 306 313 315 313 314 314 314 314 314 314 313 313 314 313 314 314 314 314 315 316 316 317 317 318 319 320 320 322 324 325 327 327 328 329 331 332 332 331 330 328 327 327 328 328 326 323 324 325 327 329 328 328 328 328 328 327 326 326 325 324 325 325
321 321 320 320 318 319 320 322 322 322 324 325 323 322 322 322 321 317 316 314 308 303 303 305 311 313 312 314 314 313 314 313 313 312 312 312 312 313 313 314 314 314 315 315 316 316 317 318 319 319 320 322 323 325 327 327 328 330 331 331 331 330 328 326 327 328 328 327 324 324 326 328 328 328 328 328 327 327 327 326 326 325 324 325 325
319 318 318 319 319 319 319 320 323 325 325 324 322 322 322 322 321 317 315 315 308 303 303 304 306 309 311 313 313 313 313 312 312 312 312 311 312 312 312 313 313 314 314 314 315 316 316 317 317 318 319 320 321 322 325 326 328 328 329 330 330 330 329 327 326 328 328 327 327 326 327 328 327 327 327 328 327 326 326 326 326 326 325 326 326
316 317 318 319 320 321 322 324 325 326 325 323 322 322 322 321 320 318 316 315 309 304 304 304 304 308 312 312 312 313 312 312 312 312 311 311 311 311 311 312 313 313 313 313 314 314 315 316 316 317 318 319 319 321 322 324 326 327 327 328 329 330 329 328 326 326 327 328 328 327 328 328 328 328 328 327 327 326 325 326 327 327 327 327 326
315 316 317 319 322 324 326 325 325 325 323 322 322 322 322 321 320 318 317 315 311 306 305 308 308 310 311 309 310 312 312 312 312 312 311 310 310 310 310 311 312 312 312 312 313 313 314 315 316 316 317 317 318 319 321 322 324 326 327 327 328 329 328 328 327 326 326 327 327 327 327 328 328 328 329 328 327 328 326 326 326 326 327 328 327
314 315 316 318 323 325 325 324 324 323 323 322 321 322 321 321 319 318 317 315 312 309 308 310 312 311 310 308 309 311 311 311 311 311 311 310 310 309 310 310 310 311 312 311 312 312 312 313 314 315 316 316 317 318 319 321 323 325 327 327 328 329 329 328 327 326 325 325 326 326 326 327 327 327 329 329 328 328 328 327 326 325 326 326 326
314 314 316 317 320 322 323 323 324 324 324 322 321 321 321 320 320 319 318 316 312 310 310 311 312 312 310 308 309 310 310 310 310 310 310 310 309 309 309 309 309 310 310 311 311 311 311 312 313 314 315 316 316 317 318 319 321 323 324 326 328 328 329 328 328 327 326 325 324 325 326 326 326 327 328 329 329 329 328 327 326 325 325 324 324
314 314 315 316 317 319 319 320 322 324 325 324 322 322 321 320 320 319 318 316 312 311 312 312 312 310 308 308 308 309 309 309 309 309 309 309 309 308 308 308 308 308 309 309 309 310 310 311 311 312 313 314 315 316 317 318 319 321 322 324 326 327 328 328 328 328 327 325 324 324 325 325 326 327 328 328 328 329 328 327 328 325 325 325 324
313 313 314 316 316 317 319 321 322 323 325 324 323 322 321 320 319 318 318 316 312 311 312 312 311 310 308 306 308 308 309 308 308 308 308 309 308 308 308 307 307 307 307 307 307 308 308 309 310 310 311 312 313 314 316 317 318 319 320 322 324 326 326 327 328 328 328 327 325 324 325 326 326 327 328 328 328 329 328 328 328 326 325 325 325
313 313 314 315 315 315 318 320 321 322 325 325 323 322 321 320 319 318 318 316 313 311 312 311 310 309 306 305 307 307 308 308 307 307 307 307 307 307 307 307 307 307 307 307 306 306 307 307 308 309 310 311 312 313 315 316 317 318 319 320 321 324 325 326 328 327 327 328 327 325 325 326 327 326 327 329 329 329 329 328 328 327 326 325 324
313 314 313 314 314 314 315 316 318 322 326 324 323 321 320 319 319 318 318 316 312 311 311 310 309 309 307 306 307 307 307 307 307 307 307 306 306 306 307 307 307 307 307 306 306 306 306 306 307 308 308 310 311 312 313 314 316 317 318 319 320 322 323 325 327 328 328 328 328 327 326 326 326 326 327 327 328 329 329 329 327 327 327 325 324
313 313 312 313 313 314 314 313 317 323 325 323 321 319 318 318 318 317 317 315 312 311 310 309 308 309 308 308 308 308 307 307 307 306 306 306 306 306 306 307 307 307 306 306 305 305 305 306 306 306 307 307 308 310 311 313 315 316 317 319 319 320 321 323 326 327 327 328 329 328 328 327 326 326 326 327 328 328 329 329 328 327 326 326 325
313 312 313 313 313 314 314 313 317 322 322 320 319 317 316 316 317 317 317 315 312 311 310 309 308 308 308 308 308 308 307 307 306 306 306 306 306 306 306 306 306 306 306 305 305 305 305 305 305 305 306 306 307 308 310 311 313 315 316 318 319 319 320 321 323 325 326 327 328 328 328 328 328 327 327 327 327 328 328 328 329 328 326 326 327
313 312 313 313 314 314 313 314 317 321 319 317 317 316 315 315 315 316 316 314 312 310 309 309 309 308 308 308 308 307 307 307 306 306 306 305 305 305 305 305 305 304 304 304 304 304 304 304 304 304 305 305 306 307 308 310 311 313 315 317 318 319 319 319 320 323 325 326 327 328 329 329 328 329 328 327 327 328 328 329 329 328 327 326 326
313 314 313 313 314 313 314 316 317 317 317 316 316 315 315 315 315 315 315 313 311 310 309 309 309 309 308 308 308 307 307 307 306 306 305 305 304 304 304 304 304 304 303 304 304 303 303 303 304 304 304 304 305 305 307 308 310 312 314 315 317 318 319 319 319 320 322 324 325 327 328 328 328 329 329 328 328 328 328 329 329 329 327 326 326
313 314 313 313 314 313 314 317 317 315 315 316 315 315 314 315 314 314 314 313 311 310 309 309 309 309 309 308 307 307 307 306 306 306 305 304 304 304 304 303 303 303 302 302 303 303 302 302 303 303 303 304 304 305 305 306 308 309 311 313 316 317 318 319 319 319 319 321 323 326 326 326 327 328 330 330 329 328 328 329 328 328 328 327 326
313 314 313 313 313 313 315 317 316 316 316 315 315 314 314 314 314 313 313 312 311 310 309 309 309 309 308 308 307 306 306 306 306 305 305 304 304 304 304 303 303 302 302 302 302 302 302 302 302 302 303 303 303 304 304 305 306 307 308 310 313 315 317 318 319 319 320 320 321 323 326 326 327 328 330 330 330 329 329 328 328 329 329 328 327
313 313 313 314 314 315 316 315 315 315 316 316 314 314 313 314 313 313 313 312 311 310 309 308 308 308 308 307 306 306 306 306 305 305 305 304 304 304 304 303 303 303 302 302 302 301 301 301 301 302 302 302 302 303 303 304 305 305 306 308 310 312 315 316 318 319 320 320 320 321 324 325 326 328 329 329 329 331 330 329 329 328 328 328 327
313 313 313 314 315 315 314 313 313 314 315 314 314 313 313 313 313 312 312 312 311 310 308 308 308 308 307 306 306 306 306 305 305 305 304 304 304 304 303 303 303 303 302 302 302 301 301 301 301 301 301 301 301 302 302 303 303 304 305 306 308 310 312 314 316 317 319 320 320 321 322 323 325 328 329 328 329 330 329 329 329 328 328 329 328
313 313 314 314 314 314 313 314 313 312 313 313 313 313 312 312 312 311 312 312 311 309 308 308 307 307 306 306 306 306 305 304 304 304 304 303 303 303 303 303 304 303 303 302 302 301 301 301 300 300 300 300 300 301 301 301 302 303 303 305 306 308 310 312 315 316 317 319 320 321 321 322 323 326 328 328 328 328 329 329 330 329 328 328 329
313 313 313 313 314 314 313 314 314 312 312 311 311 311 311 312 312 311 311 311 310 309 308 307 307 306 306 306 305 305 304 304 303 303 303 303 303 303 303 303 303 303 303 302 301 301 301 300 300 300 300 300 300 300 300 300 301 302 303 304 305 306 309 311 313 315 317 318 319 320 321 321 322 325 327 328 327 327 329 330 331 329 327 329 330
313 313 313 313 314 313 314 316 314 312 311 311 310 311 310 311 311 311 310 310 309 308 307 307 306 306 306 306 305 304 303 303 302 302 303 303 303 303 303 302 302 302 302 301 301 300 300 300 300 300 299 299 299 299 300 300 300 301 302 303 304 305 307 309 312 314 316 317 318 319 320 321 321 323 327 328 327 328 330 331 331 329 328 330 331
312 312 312 313 313 313 314 316 314 311 311 311 310 310 310 311 310 310 309 309 308 307 306 306 306 306 306 305 304 303 303 302 302 302 302 302 302 302 302 302 302 301 301 301 300 300 300 299 299 299 299 299 299 299 300 300 300 301 302 303 303 304 306 308 311 314 316 317 318 319 320 321 321 322 325 327 327 328 329 331 331 329 329 330 331
311 312 312 313 313 312 313 314 313 311 311 311 310 309 309 310 310 309 308 307 306 306 306 305 305 306 305 304 303 303 303 302 303 302 302 302 302 301 301 301 301 301 301 301 300 300 300 299 299 299 299 299 299 299 299 299 299 300 301 302 304 305 305 307 310 313 315 316 318 319 319 320 321 321 322 325 327 327 328 330 331 329 328 329 330
311 312 312 312 312 311 310 311 311 312 310 310 309 308 308 309 309 308 307 306 305 305 305 305 306 305 304 303 303 303 303 303 302 302 302 301 301 301 301 301 301 301 301 300 300 300 300 299 299 298 298 298 298 298 299 299 299 299 300 301 302 304 305 307 309 312 314 316 317 319 319 320 321 320 320 322 326 327 328 328 328 328 328 329 330
311 312 311 311 310 310 310 310 310 311 310 309 309 308 308 308 308 306 305 305 304 305 305 305 305 304 304 303 303 303 303 302 302 302 301 301 301 301 301 301 301 300 300 300 300 299 299 299 299 298 298 298 298 298 298 298 298 298 299 299 300 302 304 306 309 311 314 316 317 318 319 320 321 321 321 321 325 328 328 328 328 328 328 328 329
311 311 311 310 310 310 311 311 310 310 309 308 308 308 307 307 307 305 304 304 304 305 305 305 305 304 303 303 303 303 302 302 302 301 301 300 300 300 300 300 300 299 299 299 299 298 298 298 298 298 298 298 298 298 298 298 298 298 298 298 299 300 302 305 307 310 313 316 317 318 319 320 321 321 321 321 324 327 329 329 328 327 327 327 328
311 310 310 310 311 311 312 312 312 311 309 308 307 307 308 307 306 305 304 304 304 305 305 305 304 303 303 303 303 302 302 301 301 300 300 300 300 299 299 299 299 298 298 298 297 297 297 297 297 297 297 297 298 298 298 298 298 298 298 298 298 299 300 302 305 308 311 315 317 318 318 320 321 321 321 321 323 326 327 329 327 326 327 326 327
311 311 310 311 313 313 313 313 312 311 309 307 307 307 307 306 305 304 304 304 304 305 305 304 303 303 302 302 302 301 301 301 300 300 299 299 299 298 298 298 297 297 297 296 296 296 296 296 296 296 297 297 297 297 297 297 297 298 298 298 298 299 300 301 304 306 309 312 315 318 318 319 321 321 321 322 323 324 325 326 325 324 325 326 326
312 311 312 313 313 313 312 312 311 310 309 307 306 307 306 305 304 304 304 304 304 304 304 303 302 302 302 302 301 301 301 300 300 299 299 299 299 298 298 297 297 296 296 296 295 295 295 295 296 296 296 296 297 297 297 297 297 298 298 298 298 298 300 301 303 306 307 309 313 317 319 319 321 321 321 322 322 323 324 324 322 320 321 323 323
312 313 313 312 312 311 311 310 310 309 308 306 306 306 305 304 304 304 304 304 304 304 303 302 301 302 302 302 301 301 300 300 299 299 299 299 298 298 297 297 296 296 296 295 295 295 295 295 295 296 296 296 297 297 297 297 297 297 298 298 298 299 300 301 303 305 307 308 311 315 318 319 320 321 321 321 322 323 323 323 321 318 317 318 318
312 312 311 311 311 310 309 309 308 308 307 307 306 305 304 304 304 304 304 304 303 303 302 301 301 301 301 301 301 300 300 300 299 299 299 298 298 298 297 297 296 296 296 295 295 295 295 295 295 295 295 296 296 297 297 297 297 297 298 298 299 300 300 302 303 304 306 308 310 313 317 319 320 321 321 321 323 323 322 322 319 316 315 314 312
311 311 310 310 310 309 308 308 307 307 307 306 306 304 304 304 304 304 304 303 303 302 301 300 300 301 301 301 300 300 300 300 299 299 298 298 298 297 297 296 296 296 295 295 295 294 294 294 294 295 295 295 296 296 297 297 297 298 298 298 299 300 301 302 304 305 307 308 310 312 315 318 319 320 320 321 322 322 321 321 319 315 313 311 309
310 309 309 308 308 308 308 308 307 307 307 306 305 304 304 304 304 304 303 303 303 301 300 299 299 301 301 300 300 300 300 299 299 298 298 298 297 297 296 296 296 295 295 294 294 294 294 294 294 295 295 295 296 297 298 298 298 298 298 298 299 301 302 303 305 306 308 309 311 313 316 318 318 319 320 321 321 321 320 320 318 316 313 311 308
309 308 307 307 307 308 308 308 306 306 306 305 304 304 304 304 304 303 303 302 301 300 299 299 299 300 300 300 299 299 300 299 298 298 298 297 297 296 296 296 295 294 294 294 293 293 293 294 294 295 295 295 295 296 298 299 299 298 298 298 299 301 303 304 305 307 309 310 312 314 317 318 318 319 320 320 320 320 320 319 318 317 316 314 309
307 307 306 307 308 308 308 307 305 305 305 305 304 304 304 304 303 303 303 301 300 299 298 299 299 299 299 299 299 299 299 298 298 298 297 297 296 296 295 295 294 294 293 293 292 293 293 293 294 294 294 295 295 296 296 298 299 300 300 299 299 301 304 306 307 309 310 311 313 315 316 317 318 319 319 320 320 319 318 317 316 316 316 313 308
306 307 307 307 307 308 308 307 305 304 304 304 304 304 303 303 303 303 302 301 299 298 298 299 299 299 299 299 299 298 298 298 297 297 297 297 296 295 294 294 294 293 293 292 292 292 293 293 294 294 294 294 294 295 295 296 298 300 301 302 301 302 304 307 308 310 312 312 313 314 314 316 318 319 318 318 318 318 316 315 315 315 314 310 306
306 306 306 306 307 307 308 307 304 303 303 303 303 304 303 303 303 302 301 299 299 298 299 299 298 299 299 298 298 298 297 297 297 297 296 296 295 295 294 294 293 293 292 292 292 292 292 293 293 294 294 294 294 295 295 296 298 300 302 304 304 305 306 307 308 311 312 313 313 313 313 315 316 317 317 316 315 315 314 313 313 312 310 307 305
306 306 306 306 306 306 307 307 305 303 303 303 303 303 303 303 302 301 300 299 299 299 299 299 298 298 298 298 298 298 297 297 297 296 296 296 295 294 294 293 292 292 292 292 292 292 292 292 293 293 294 294 294 295 296 297 299 301 303 304 306 307 307 307 309 311 312 312 312 311 312 314 315 314 313 312 310 311 312 311 311 309 306 305 303
306 306 306 306 306 307 307 307 306 304 303 303 303 303 303 303 301 300 299 299 299 299 298 298 297 297 298 298 298 297 297 296 296 296 296 296 295 294 293 292 292 291 291 291 291 291 291 292 292 293 294 294 294 295 296 297 299 301 303 304 306 307 307 307 308 310 311 311 310 310 310 311 311 309 309 307 307 307 307 307 306 305 303 302 300
306 306 306 305 306 307 307 308 307 305 303 303 302 302 302 302 301 300 299 299 299 298 298 298 297 297 297 297 297 297 296 296 296 296 296 295 295 294 293 292 291 291 291 291 291 290 291 291 292 292 293 293 294 294 295 297 298 299 301 302 303 304 305 307 307 307 307 307 306 306 306 306 305 304 304 304 304 303 302 301 300 299 299 299 298
305 306 306 306 306 306 307 307 307 306 304 302 302 302 302 302 301 300 300 299 298 298 298 298 297 297 297 297 296 296 296 296 296 296 296 295 294 294 293 292 292 291 290 290 290 290 290 290 291 292 292 292 293 294 294 295 297 299 300 301 302 303 304 306 305 303 301 301 300 300 300 300 299 299 298 298 298 298 297 297 296 296 296 296 296
305 305 306 306 306 306 307 307 307 306 304 302 302 301 301 301 301 300 300 299 298 298 298 298 297 297 297 296 296 296 296 295 295 296 296 295 294 294 293 292 292 292 291 290 290 290 290 289 290 291 291 290 292 293 293 294 297 298 299 300 301 303 304 304 303 302 299 297 296 296 296 295 295 295 294 294 294 294 294 294 294 294 294 293 293
305 305 305 306 306 306 307 307 306 304 303 302 302 301 301 301 301 300 299 299 299 298 298 298 297 297 296 296 296 296 295 295 295 296 295 295 294 294 293 292 292 292 292 291 290 290 290 289 290 290 290 290 290 291 293 295 297 298 298 299 300 303 303 302 301 301 299 296 294 294 294 294 293 293 293 293 293 292 293 292 292 292 292 292 292
305 305 305 306 306 306 306 306 304 302 302 302 301 301 301 301 300 299 300 299 299 299 299 298 298 297 296 295 296 296 295 295 295 295 295 295 294 294 293 292 292 292 292 291 291 290 290 290 290 290 290 290 290 291 293 295 297 298 298 298 298 300 301 300 299 299 297 295 294 294 294 293 293 293 293 293 292 292 292 291 291 291 291 291 291
Wind_Speed
12 13 14 15 17 16 15 14 12 11 12 13 11 9 8 7 6 6 4 2 2 2 2 5 8 9 10 11 11 10 10 8 6 5 5 4 4 5 3 3 4 4 5 6 8 9 12 14 17 20 22 21 20 23 29 29 25 23 21 19 18 16 15 16 15 13 12 11 11 12 13 13 15 16 18 18 18 17 16 15 14 14 13 13 13
8 10 13 14 15 16 15 14 14 13 12 13 12 11 9 8 6 5 4 2 2 2 2 3 6 9 9 8 10 10 9 8 7 6 6 4 5 5 4 4 4 4 4 4 6 7 8 10 12 14 17 21 22 23 26 29 27 24 21 19 20 18 17 18 17 15 14 13 12 10 11 12 15 17 19 19 20 18 17 16 16 16 15 14 14
9 10 11 13 14 16 16 15 16 15 13 11 12 11 10 9 7 6 4 2 2 3 3 3 6 10 11 9 10 9 7 8 8 6 5 5 5 5 6 6 6 5 4 5 5 6 7 8 9 9 11 16 21 23 24 25 28 28 24 22 21 19 18 18 19 19 16 13 12 9 8 9 12 16 19 20 20 19 17 17 17 18 17 15 14
9 9 10 11 13 16 17 16 16 15 13 12 11 12 11 9 8 7 4 2 2 3 5 6 8 10 11 10 10 9 7 7 7 5 5 6 6 6 7 7 7 6 6 6 6 7 7 8 9 10 11 14 18 23 23 22 24 28 30 28 24 20 19 21 21 22 19 14 11 8 8 8 8 11 17 19 20 20 19 18 18 19 18 16 15
7 8 9 10 13 15 17 17 16 15 15 14 12 12 11 10 9 8 5 3 1 2 5 6 6 6 6 6 6 7 7 6 6 6 7 8 8 8 8 8 7 7 7 6 7 8 8 8 9 10 11 12 15 20 24 24 23 25 29 31 30 27 23 22 21 23 23 20 14 9 8 7 6 9 11 13 17 20 19 20 20 20 18 16 16
6 7 9 11 13 15 17 17 16 16 16 14 13 12 11 11 11 9 7 4 3 1 4 5 4 4 5 5 5 6 6 6 7 7 8 8 8 9 9 8 8 8 8 8 7 8 9 9 9 9 10 11 13 16 19 22 23 26 31 33 33 33 29 23 20 22 24 25 21 16 11 7 6 8 8 7 12 16 18 20 21 21 20 17 16
6 7 8 10 13 14 16 16 17 17 15 13 13 13 12 12 12 11 8 6 5 3 2 4 4 4 5 5 4 5 5 5 5 6 7 7 9 9 9 9 8 8 8 8 8 9 9 10 11 10 10 11 12 14 16 18 21 23 28 33 33 33 31 24 20 20 20 23 24 21 18 13 9 8 7 6 7 11 15 19 20 21 20 19 18
7 7 8 10 12 14 15 16 17 15 14 13 13 14 14 13 13 12 10 8 7 4 2 3 3 2 4 3 3 3 3 3 4 4 6 7 8 9 9 9 9 8 8 8 8 9 9 10 10 11 12 12 11 13 15 17 20 19 21 28 31 31 31 30 26 21 18 20 22 21 20 18 15 12 10 9 7 6 10 14 18 19 20 20 19
8 8 9 10 12 13 14 14 14 13 13 13 13 14 14 14 14 14 12 10 8 6 4 2 2 2 2 2 2 2 2 2 2 3 4 6 7 9 10 10 9 9 8 8 8 8 9 10 10 11 12 13 13 13 14 15 18 21 22 25 28 30 31 33 31 26 22 21 21 20 20 20 19 18 15 14 11 9 8 8 13 16 17 19 19
9 9 9 10 11 11 10 11 11 11 12 12 12 12 13 14 14 15 13 11 10 9 6 4 2 2 0 1 2 2 2 2 2 2 3 4 7 8 9 9 9 9 9 9 9 9 9 9 10 11 12 13 14 14 15 15 16 19 24 26 28 30 30 31 32 31 29 26 22 19 17 18 19 18 18 18 15 14 12 8 11 14 13 16 19
10 10 10 10 9 9 9 10 10 10 11 11 11 12 13 14 15 15 14 12 11 10 8 6 4 3 2 0 1 1 1 2 2 2 3 4 6 7 8 9 9 9 10 9 9 9 9 9 9 10 11 12 14 15 16 16 16 18 21 25 28 30 31 31 32 35 33 29 26 23 20 20 20 19 18 19 17 15 12 8 11 14 14 15 17
11 11 10 10 9 8 9 10 10 10 11 12 12 13 14 15 16 16 16 14 12 11 9 7 6 4 2 1 1 1 1 1 2 2 3 3 5 5 6 8 8 9 9 9 10 9 10 10 10 10 11 12 14 15 16 16 16 17 19 22 25 29 32 33 33 34 35 32 31 30 28 26 25 24 21 19 19 17 14 10 12 14 12 13 16
11 11 10 10 9 9 11 11 11 12 13 14 14 15 15 16 17 17 16 15 13 11 10 8 7 5 3 2 2 1 1 2 2 3 3 4 4 5 6 7 8 8 9 9 10 10 10 11 11 11 11 12 13 14 17 18 17 17 18 21 24 26 29 34 36 37 36 36 36 34 32 30 30 29 24 21 20 19 17 13 14 15 12 10 14
10 11 11 10 10 11 12 13 12 12 14 15 15 15 15 15 16 17 16 15 14 12 11 9 8 6 4 3 3 2 2 3 3 3 4 4 5 6 6 7 8 8 9 10 10 11 11 12 13 13 13 14 14 15 16 18 19 19 19 20 23 24 26 30 34 36 37 39 40 38 34 33 35 32 26 25 24 22 20 17 14 14 13 12 12
11 11 11 11 12 13 12 12 11 11 13 13 13 13 14 14 16 18 17 16 15 13 11 10 8 6 4 3 3 3 3 4 4 4 4 5 5 6 7 8 9 9 9 10 11 12 12 13 14 15 15 15 16 16 17 17 19 20 20 21 21 22 24 27 30 34 35 38 42 42 39 37 38 36 30 28 28 25 22 20 16 12 10 11 11
11 11 12 12 13 14 13 11 11 10 10 11 11 12 13 14 15 17 18 16 16 14 12 10 8 7 5 3 3 4 4 4 5 5 5 6 7 7 8 9 9 10 10 10 11 12 13 13 14 15 16 16 16 16 17 17 18 19 21 22 22 21 21 24 28 31 32 34 39 43 43 40 39 39 35 30 29 27 23 22 21 16 12 9 9
12 12 12 12 14 15 14 14 13 10 9 10 10 11 12 12 13 16 17 16 15 14 12 10 8 7 5 4 4 5 5 6 6 6 7 7 8 8 9 9 10 10 11 11 12 13 14 14 15 16 16 17 17 17 17 18 19 20 21 23 24 23 22 22 24 27 30 31 33 37 41 42 41 40 39 35 31 29 26 26 25 22 18 12 8
13 13 13 13 14 15 16 16 14 10 8 8 9 9 10 10 12 15 17 16 15 13 11 10 8 7 6 5 5 6 6 6 7 7 7 8 8 9 9 10 10 11 11 12 13 14 15 16 16 17 17 17 18 19 19 19 19 20 21 23 24 24 24 23 22 25 30 30 31 34 36 39 41 42 42 39 36 33 31 32 28 25 24 18 12
12 13 12 12 13 15 16 15 12 8 7 7 8 8 8 9 10 13 15 15 14 13 11 9 8 7 6 6 6 6 6 7 7 7 8 9 9 10 10 11 12 12 13 14 15 16 16 17 17 17 17 17 18 19 19 20 20 20 20 21 23 25 26 26 23 23 27 29 32 35 35 36 40 42 42 41 40 37 35 35 34 29 26 24 19
11 11 12 12 14 16 16 15 11 8 7 7 7 7 8 9 10 12 14 14 14 13 11 9 8 7 6 5 5 6 6 7 7 8 9 9 10 11 12 13 14 15 15 16 17 17 18 18 18 19 19 18 19 19 19 20 21 21 21 21 22 24 26 28 27 26 26 27 30 32 34 36 37 39 41 41 42 39 35 35 35 31 27 26 24
11 11 12 12 14 16 14 10 8 8 7 7 7 7 8 9 11 13 15 15 14 13 11 9 8 7 6 5 5 6 7 8 8 9 10 11 12 14 15 16 16 17 17 18 18 19 19 19 19 20 21 20 20 20 20 20 21 22 22 23 23 24 26 28 29 30 28 27 28 30 33 36 37 37 38 41 43 42 38 35 32 31 29 27 26
12 12 12 11 12 14 11 8 7 6 6 7 7 7 8 10 11 13 15 16 15 13 11 9 8 7 6 5 5 6 7 8 9 10 11 12 14 16 17 18 19 20 19 20 20 21 21 21 21 21 21 21 21 22 22 22 22 23 23 23 24 25 26 27 29 32 32 29 28 29 32 34 35 35 34 36 39 42 40 37 34 32 30 28 27
12 12 12 11 12 12 9 8 7 5 5 6 7 7 9 10 11 13 15 15 15 13 11 9 8 7 6 5 6 7 8 9 10 11 13 14 16 18 19 20 21 22 22 23 23 22 22 23 23 23 22 23 23 23 23 23 24 24 24 25 25 25 26 26 28 30 32 33 31 30 31 32 32 33 34 34 35 38 39 38 36 35 32 28 27
13 12 11 11 12 11 9 9 8 5 5 5 6 7 8 10 11 12 13 14 14 12 10 8 7 6 5 6 6 7 8 10 11 12 15 17 18 19 20 21 21 22 23 25 25 25 25 25 25 24 24 24 25 24 25 25 25 26 26 26 26 27 27 27 28 29 31 34 34 32 31 31 32 32 33 35 34 35 39 38 37 37 35 30 28
14 13 12 12 12 11 11 11 9 5 5 6 6 7 8 9 10 11 12 13 13 12 9 7 6 6 6 6 7 8 9 10 12 14 17 19 19 20 21 22 22 23 24 25 26 26 27 26 26 26 26 26 26 26 27 27 27 26 26 27 28 28 29 28 29 30 30 32 35 34 32 31 32 31 33 37 36 36 39 39 38 38 34 29 28
14 14 13 12 10 10 11 9 6 4 5 6 7 7 7 8 9 10 11 12 12 11 9 7 6 6 6 7 7 8 9 11 14 16 18 19 20 21 22 22 23 24 25 27 28 28 27 26 26 27 27 27 27 28 28 28 28 27 27 27 28 29 30 30 30 31 31 32 33 34 34 33 33 32 34 38 39 38 39 38 38 38 33 28 26
13 12 12 11 10 11 10 7 4 5 6 6 6 7 8 8 10 10 11 11 11 9 8 6 6 6 6 7 7 8 10 12 14 16 18 19 20 21 22 23 24 25 27 30 31 30 29 28 28 28 28 29 29 29 30 29 29 28 28 28 28 29 30 31 32 32 32 32 33 34 35 34 34 34 35 37 40 40 37 37 38 39 37 29 23
12 12 12 13 12 11 9 7 7 7 7 7 7 7 8 8 9 10 11 11 10 8 7 6 6 6 6 7 7 8 10 13 14 16 17 19 20 22 23 24 25 26 28 30 30 29 28 29 29 29 29 29 30 30 30 30 29 28 29 29 29 29 30 31 32 33 33 33 33 34 36 35 35 35 35 36 40 40 35 34 37 39 40 33 24
14 13 13 13 13 10 7 8 9 8 8 8 8 7 8 8 9 10 11 11 9 8 7 6 5 6 6 6 7 9 11 13 15 16 17 19 21 22 23 24 25 26 28 29 29 29 29 29 30 30 31 30 31 32 31 30 29 28 27 28 29 29 30 30 31 33 34 34 33 33 35 36 36 36 35 35 39 41 37 34 35 38 39 34 27
14 14 13 11 10 9 8 8 8 8 9 8 8 7 8 10 10 11 11 10 9 7 6 5 5 5 5 7 8 9 12 13 13 15 18 20 22 23 24 25 26 26 27 27 29 30 30 30 31 31 31 31 32 32 32 32 32 30 28 27 27 28 29 30 31 32 33 34 35 34 33 36 38 39 38 37 38 41 41 38 38 40 40 35 29
13 12 10 9 9 8 7 7 7 7 8 7 7 8 9 10 11 11 11 9 8 6 5 5 4 4 5 7 8 10 12 12 13 16 18 20 22 23 24 25 26 26 26 28 29 30 30 30 31 31 31 32 33 33 33 34 35 35 33 30 28 28 28 30 31 32 33 33 34 34 33 34 37 40 40 39 38 40 43 44 44 43 42 38 32
11 9 9 9 9 8 7 6 6 5 6 7 8 9 10 12 12 11 10 8 7 6 5 4 4 5 6 7 8 10 11 13 14 16 18 20 22 23 24 25 25 26 27 29 30 29 29 29 30 31 32 33 34 34 34 35 36 36 36 35 32 31 30 30 31 32 33 32 32 33 33 33 34 38 39 39 38 40 44 47 47 47 46 42 36
10 10 9 8 7 7 6 4 3 3 4 6 8 10 12 12 12 11 9 8 7 5 4 4 4 5 6 7 8 10 12 13 14 16 18 20 22 23 24 24 25 26 27 28 29 29 30 30 30 31 33 34 34 35 36 36 37 37 38 38 36 34 33 33 32 31 31 32 32 32 32 32 33 35 37 37 37 40 45 47 46 48 50 46 40
10 9 8 7 5 5 4 3 2 2 3 5 8 10 12 12 11 11 9 7 6 4 4 4 4 5 6 7 9 11 13 13 14 16 19 21 22 23 24 24 25 26 26 28 29 29 29 29 30 31 33 33 34 34 35 37 38 38 39 40 39 36 36 36 35 34 32 32 33 32 31 32 32 34 35 37 37 38 42 45 44 45 49 49 44
9 8 7 5 4 3 3 2 2 2 5 7 9 11 13 12 11 10 8 6 5 4 4 4 4 5 6 8 10 11 12 13 15 17 20 21 23 25 25 26 27 27 27 27 28 28 28 29 30 31 33 34 33 33 34 36 38 38 38 40 40 38 38 38 37 36 35 33 32 33 33 32 32 33 34 36 37 34 35 40 40 39 43 45 42
8 7 6 4 3 2 2 2 2 3 6 9 12 13 13 12 11 9 7 5 4 4 4 4 4 5 7 9 11 12 13 14 17 19 21 22 25 26 28 29 29 28 27 26 27 27 28 30 30 31 33 35 35 34 35 36 37 37 38 40 40 38 38 39 38 37 36 35 34 34 34 33 33 33 34 36 38 34 31 33 31 27 32 36 35
7 7 6 4 2 1 2 2 3 5 7 10 13 14 13 12 10 8 6 5 4 4 4 4 4 6 7 9 11 12 14 16 18 20 22 23 25 27 29 30 29 28 27 27 28 29 29 30 31 32 34 35 36 35 36 37 38 38 39 39 37 36 36 38 38 37 35 35 36 36 34 33 33 34 34 35 37 35 30 28 27 24 27 29 27
8 6 4 3 2 1 2 3 4 6 7 11 14 15 13 12 10 8 6 5 4 3 4 4 5 6 8 10 11 13 15 16 18 20 22 23 26 28 30 29 28 29 29 29 30 30 30 31 31 33 33 35 36 35 36 38 39 39 40 39 35 33 35 35 36 37 35 35 36 38 37 35 34 35 35 34 37 37 30 27 30 31 31 29 26
7 5 3 2 1 1 2 3 4 6 9 12 15 15 13 11 9 7 6 4 3 3 4 4 5 6 8 10 12 13 14 16 19 21 22 23 26 30 30 29 28 29 29 29 29 30 31 31 31 32 33 33 35 35 37 39 41 41 41 40 35 32 33 34 34 34 34 33 34 37 39 38 35 33 32 34 37 37 31 29 34 36 33 31 30
6 6 3 1 2 2 3 3 4 6 9 13 15 14 12 10 8 6 5 3 2 2 3 4 5 6 7 9 11 13 14 16 19 21 22 23 26 29 30 29 28 29 29 29 29 30 31 30 30 30 31 31 32 33 35 38 41 41 41 40 36 32 32 33 32 31 31 31 33 34 36 38 38 33 29 32 37 37 32 32 37 38 36 34 33
4 5 2 2 3 2 3 3 3 6 11 14 14 13 11 9 7 6 4 2 1 1 3 4 5 6 7 9 11 13 14 16 18 20 22 23 26 28 28 28 29 29 29 30 31 30 29 28 28 29 30 29 29 30 31 32 35 39 40 41 40 36 33 32 31 30 29 29 31 32 31 33 37 35 29 31 35 36 33 35 39 41 39 38 36
3 3 1 2 2 2 3 2 3 7 12 14 13 13 11 9 7 5 4 2 1 1 2 3 5 6 7 9 10 12 14 15 17 20 21 22 24 25 26 28 29 29 29 30 30 28 26 26 27 28 28 26 27 28 27 28 31 34 37 40 41 39 35 32 29 29 29 28 29 30 27 27 33 34 29 29 32 34 34 34 38 40 39 38 38
2 1 2 0 2 3 3 2 3 8 13 14 13 13 11 8 7 5 4 3 1 1 2 3 5 6 7 9 10 12 13 15 17 19 20 22 24 24 25 27 28 28 29 30 29 27 25 25 26 27 26 25 25 25 25 25 28 32 35 39 41 40 38 35 30 27 28 27 27 26 24 24 29 30 27 27 31 34 34 34 37 39 38 38 38
2 1 1 0 3 3 2 3 4 8 12 14 13 12 11 8 6 6 5 3 1 0 2 4 5 6 7 9 9 11 13 15 17 18 19 21 22 23 24 26 27 27 27 29 29 28 25 23 24 26 26 24 23 22 23 23 24 27 32 36 39 40 40 38 32 27 25 26 25 24 23 24 26 26 26 27 31 34 35 35 36 38 38 38 39
1 1 1 2 3 2 3 5 5 8 12 13 12 12 11 8 6 6 5 3 2 0 2 4 6 7 7 8 9 10 12 14 16 17 18 20 20 20 22 25 26 26 26 27 28 27 25 24 24 25 25 24 20 19 21 21 20 23 28 33 38 39 39 39 34 26 24 25 25 23 24 25 25 25 26 28 31 34 36 36 37 39 40 39 39
2 2 2 2 2 2 5 6 7 8 11 12 10 10 10 8 7 7 5 4 3 1 2 4 6 7 7 8 9 10 12 14 15 16 17 19 20 19 20 23 24 25 25 25 26 24 23 23 23 24 24 22 19 17 18 17 16 17 21 26 31 33 34 34 29 22 20 22 22 23 26 27 26 27 29 32 33 33 34 37 39 40 41 41 40
4 4 3 1 1 3 5 7 8 9 11 11 10 9 9 9 9 8 7 5 4 3 3 5 6 7 7 8 9 10 12 13 14 15 17 19 20 18 18 20 21 22 23 24 24 24 22 21 21 22 23 22 18 15 15 15 13 9 11 17 22 26 28 27 23 20 20 22 23 25 27 29 28 29 31 34 35 35 36 37 37 36 38 39 39
5 5 4 2 0 1 4 7 9 10 11 12 11 10 10 10 9 8 7 6 4 3 4 5 6 7 8 9 9 10 11 12 14 14 16 18 20 19 18 18 19 21 23 24 24 24 24 23 22 22 23 22 17 13 14 16 14 6 7 16 24 28 28 27 26 24 25 26 27 29 30 31 32 32 31 32 34 34 34 35 34 33 34 34 35
4 4 4 4 3 1 2 5 7 9 11 12 12 11 11 11 10 9 8 6 5 3 3 5 5 6 8 9 9 10 11 12 13 13 15 17 19 20 20 19 20 22 24 26 27 26 26 26 24 20 19 19 17 14 14 16 13 8 6 13 24 30 31 31 31 30 31 30 28 28 29 29 31 32 30 29 31 31 30 29 31 33 35 35 37
3 3 4 5 5 3 3 5 7 9 11 12 12 11 11 11 10 9 8 6 4 3 3 4 5 6 8 8 9 9 11 11 11 12 15 17 18 19 20 20 21 22 23 25 28 29 28 28 25 19 16 17 15 13 13 13 10 8 8 10 21 30 32 33 34 35 35 31 25 23 23 23 25 28 28 26 28 31 32 31 31 33 36 38 38
3 3 4 5 6 6 6 8 9 10 11 12 12 13 12 12 11 10 8 6 4 4 4 4 5 5 6 7 8 9 10 11 11 11 13 16 18 19 20 20 21 22 22 23 27 30 30 29 26 22 20 19 16 11 8 7 5 6 7 9 17 27 31 34 37 36 31 25 23 22 21 20 21 23 23 24 27 31 34 34 32 32 32 34 35
Wind_Direction
228 213 199 192 192 192 196 204 206 207 216 222 219 211 201 191 178 165 149 84 55 52 28 29 25 14 8 6 2 359 355 354 356 1 4 359 347 345 337 318 306 286 268 258 253 254 258 256 251 247 243 239 238 238 231 224 221 218 214 216 217 215 218 227 225 221 217 202 200 210 211 218 222 223 227 229 231 231 231 228 223 224 223 221 221
209 191 188 191 191 188 192 201 207 209 213 217 217 215 207 200 193 172 153 121 89 65 58 55 32 18 11 4 357 355 353 350 346 343 348 352 351 353 347 332 321 303 283 265 257 250 250 254 253 250 244 238 236 239 238 231 222 214 209 210 216 213 212 223 223 216 216 203 195 202 207 218 223 226 230 231 232 232 230 226 224 225 225 223 222
193 186 186 191 191 189 192 199 209 213 210 209 211 212 208 204 197 175 157 136 87 49 58 57 27 19 14 8 4 0 355 346 342 338 345 351 348 349 344 332 325 312 293 280 270 257 248 247 248 247 241 236 233 233 238 236 225 213 208 209 213 212 214 226 222 216 221 209 197 203 203 210 218 222 228 230 229 228 227 226 226 226 226 225 222
202 194 185 187 190 189 192 199 205 207 206 205 204 205 207 207 192 170 162 146 91 32 41 36 22 18 11 7 9 7 1 350 347 349 346 345 339 332 330 325 321 311 296 285 271 262 259 251 246 241 236 236 234 231 231 233 229 218 212 212 210 206 212 226 222 216 225 220 205 210 204 206 219 214 217 223 223 222 223 224 227 228 227 227 222
214 197 185 186 188 186 192 199 201 202 206 208 204 202 205 203 188 174 171 162 137 30 40 38 28 23 11 5 10 7 5 1 357 354 345 338 331 325 324 321 315 308 300 293 280 269 265 259 253 245 238 235 233 231 229 229 234 230 221 215 213 209 208 220 223 215 222 229 227 225 209 209 231 211 205 215 216 219 223 221 226 230 228 227 224
215 199 191 185 184 187 193 196 199 205 209 207 201 199 201 195 188 187 182 173 182 144 53 48 38 30 22 17 13 6 5 7 359 347 340 333 326 322 321 320 312 306 302 296 289 281 274 269 264 256 248 242 236 235 233 231 234 234 227 219 216 214 207 210 223 217 218 229 232 235 239 244 247 219 208 215 210 216 226 225 225 229 229 227 224
199 194 190 185 186 190 192 194 200 207 205 199 195 198 197 189 189 194 188 180 195 193 85 61 49 28 26 28 23 16 8 3 355 338 332 326 321 321 319 319 314 306 302 295 290 287 284 279 271 265 259 253 245 240 238 235 234 232 224 217 215 214 208 206 221 221 217 226 231 234 243 252 257 239 227 227 213 213 223 227 229 228 227 227 225
191 189 186 185 188 191 193 197 202 204 196 191 197 202 197 190 191 195 189 185 197 202 160 88 74 28 23 35 32 23 9 357 349 334 330 323 317 318 315 313 311 306 302 297 294 289 286 283 277 272 265 261 256 248 244 240 239 238 227 219 216 214 210 207 216 220 212 220 231 234 238 244 249 250 244 241 242 229 218 224 231 230 225 226 225
195 191 187 187 190 195 199 200 197 193 191 194 200 202 197 191 191 193 190 189 198 205 199 148 92 42 17 37 35 16 359 354 349 331 328 323 316 314 312 310 307 304 301 299 300 295 289 284 280 276 268 264 262 256 252 247 244 242 235 228 222 217 214 210 212 217 212 215 225 229 233 239 245 247 245 245 250 249 236 221 218 219 221 222 220
200 195 190 190 191 193 190 186 184 185 193 199 198 199 197 193 191 192 191 191 198 206 204 188 135 88 92 44 47 21 345 339 343 336 325 320 315 312 311 309 307 304 300 297 298 298 294 287 280 276 271 267 265 262 257 253 253 248 240 236 231 225 221 216 214 217 217 216 219 222 227 233 239 241 238 240 245 246 250 237 205 202 210 215 213
203 199 195 192 186 179 177 183 189 192 200 202 198 198 197 194 194 194 194 192 196 203 201 190 176 158 179 261 60 50 334 322 322 325 315 312 309 307 308 306 304 302 299 296 295 296 295 289 281 276 272 267 264 264 261 257 257 254 246 241 238 233 229 223 218 218 219 218 219 221 223 229 237 241 236 236 238 240 245 243 220 210 210 212 207
206 202 198 195 187 183 191 200 200 198 203 205 203 201 198 198 198 196 197 193 191 197 196 187 182 176 181 166 105 120 279 290 296 298 298 298 293 296 302 300 299 299 296 295 292 291 293 289 283 278 274 268 263 262 262 261 260 258 253 245 238 235 233 227 220 219 218 217 219 222 223 227 236 242 241 237 237 240 239 237 233 220 214 213 200
212 207 201 198 198 199 205 212 207 202 207 210 207 204 202 201 199 197 197 193 188 192 190 183 180 177 176 163 146 168 229 256 271 277 276 280 280 284 290 291 292 293 292 290 286 285 286 283 281 280 276 272 268 263 261 261 262 260 257 250 241 235 233 228 223 221 218 215 217 222 224 225 230 237 242 239 236 237 235 235 235 225 219 214 195
218 214 208 202 204 207 211 218 214 208 211 212 209 205 202 200 198 199 199 192 186 185 183 179 177 176 177 164 158 181 220 242 254 263 266 270 273 276 281 281 280 281 283 282 281 280 277 275 276 275 274 274 272 267 263 260 261 259 257 255 249 242 236 231 226 223 221 218 217 219 223 226 228 230 235 238 236 233 231 231 234 230 221 218 206
222 218 213 207 208 210 212 216 214 211 209 206 203 201 199 200 198 198 198 190 183 181 179 175 173 173 175 170 171 189 213 231 244 253 259 266 269 272 274 274 273 273 274 276 276 276 274 272 273 272 272 273 271 267 263 261 259 257 254 253 253 249 242 236 230 225 221 220 221 221 221 225 227 227 228 234 235 232 231 228 229 233 221 218 221
220 216 213 210 211 213 213 212 211 212 204 193 191 194 196 200 199 199 198 189 181 179 175 172 172 174 177 181 183 196 217 228 237 244 252 262 267 269 271 270 271 271 271 272 273 272 271 271 271 270 270 270 268 266 264 262 259 255 253 251 250 250 246 240 235 229 222 220 221 221 221 223 226 226 226 229 232 233 236 232 225 227 228 220 223
215 212 212 211 212 215 215 214 213 210 198 184 184 189 193 197 199 200 198 187 178 176 172 170 170 172 178 182 188 203 220 230 235 242 251 262 264 266 270 270 270 271 271 272 273 270 269 269 269 269 268 267 266 265 264 263 260 255 252 249 247 246 247 245 240 234 229 224 221 220 221 223 225 226 227 227 229 230 235 237 229 224 229 229 224
212 209 212 214 216 217 215 216 216 205 191 179 177 183 189 197 201 200 197 187 178 174 172 170 169 171 179 186 197 211 223 232 238 244 251 258 262 266 270 272 272 273 273 275 276 274 270 269 269 268 267 266 264 263 263 264 261 257 254 251 247 244 244 245 243 239 233 227 223 222 221 222 222 224 226 225 226 227 230 237 237 227 223 227 232
212 211 214 216 219 218 215 219 216 193 176 173 172 181 188 196 201 200 198 189 179 173 171 171 172 174 180 188 202 215 225 234 237 242 250 257 263 268 272 275 278 279 278 277 276 275 273 271 269 268 267 265 263 261 261 263 262 258 256 253 248 244 242 242 242 242 237 230 226 225 221 219 220 222 223 222 224 227 228 234 240 235 223 220 228
217 218 219 217 221 221 219 222 214 180 169 173 175 184 191 194 196 195 192 185 176 174 172 174 179 181 183 191 207 221 229 237 241 245 252 258 265 272 276 279 281 280 279 278 276 273 272 272 270 269 267 264 263 261 258 258 259 257 254 253 250 247 243 241 239 241 242 236 231 228 225 221 220 219 220 220 222 225 226 228 235 239 230 221 222
219 222 226 224 224 224 220 215 197 170 164 169 174 185 190 192 194 191 188 183 179 178 177 179 183 186 192 202 217 233 239 244 249 251 256 263 272 277 277 278 278 277 277 277 276 274 272 271 269 269 267 265 262 260 258 256 256 256 254 252 252 249 247 245 240 239 241 241 237 234 232 228 223 219 218 219 220 222 224 225 230 239 237 226 220
220 222 228 228 227 227 217 195 182 175 170 171 174 184 189 191 193 191 191 190 186 184 183 184 186 191 200 213 231 246 249 251 254 257 262 270 276 277 277 277 276 276 277 276 276 275 273 270 269 268 266 265 262 259 258 256 254 256 256 253 250 248 248 248 245 241 239 240 240 238 237 234 230 225 220 217 217 218 221 224 228 238 239 229 221
223 222 224 229 231 229 207 184 188 189 178 175 178 188 192 191 192 191 192 192 189 187 186 186 190 197 208 225 244 253 257 259 260 263 269 276 279 278 278 278 276 277 277 276 275 275 273 271 269 267 265 263 262 259 257 256 254 253 254 255 253 249 247 246 246 245 241 239 239 240 239 236 233 232 226 219 215 215 218 221 224 232 236 230 224
223 223 224 227 228 224 212 212 226 215 176 175 186 192 190 188 190 190 190 191 189 188 190 193 198 207 220 239 254 260 263 266 266 271 279 282 281 280 280 279 277 277 276 274 273 273 273 272 269 267 265 263 261 259 257 255 253 252 251 252 254 252 249 246 244 245 245 242 239 239 240 237 232 231 229 224 217 211 213 216 219 227 231 225 220
222 225 225 224 222 225 228 237 250 235 172 170 182 183 182 184 186 186 186 187 188 188 193 201 208 218 236 249 257 265 269 272 276 280 284 285 284 283 283 281 278 276 274 274 273 272 272 271 268 267 265 263 262 259 258 256 253 252 251 251 252 251 250 248 245 244 246 245 241 239 240 240 235 230 228 227 222 213 211 213 217 223 226 221 214
224 225 226 227 224 227 233 237 244 217 168 164 168 169 174 178 179 182 182 182 184 186 191 200 212 227 244 253 261 270 276 281 285 287 286 286 286 285 284 283 281 278 276 275 274 273 271 268 267 267 264 263 262 260 258 257 253 252 251 250 249 249 248 247 247 244 243 243 243 240 239 239 237 234 229 227 226 221 215 212 213 217 221 223 216
225 228 230 230 225 229 236 227 197 175 157 153 159 164 169 171 173 177 175 174 177 180 187 199 214 232 247 257 266 275 281 286 288 288 288 288 287 287 287 285 284 281 279 277 275 273 270 269 268 267 265 263 262 260 258 256 253 250 249 248 247 247 246 245 245 243 241 241 242 242 239 238 238 236 232 227 226 226 219 212 211 213 216 222 218
224 228 232 232 231 235 231 196 168 161 152 152 160 161 164 167 169 169 168 168 171 176 189 202 216 234 249 263 273 280 286 289 289 289 290 291 290 289 288 287 285 283 281 279 277 274 271 270 269 266 265 263 261 260 257 255 252 249 247 246 245 245 245 244 243 241 238 238 240 241 239 238 237 237 235 229 225 224 221 215 211 209 212 218 215
227 229 232 233 233 230 207 172 161 161 159 161 163 161 162 165 163 162 164 167 169 177 191 204 219 236 253 269 279 286 289 290 291 292 293 293 292 291 289 288 286 284 283 281 278 276 273 271 270 267 266 263 261 259 255 252 250 247 246 245 244 243 244 244 243 241 238 237 238 239 238 237 237 236 236 233 227 223 220 216 210 204 209 216 213
231 230 229 223 216 205 182 167 167 171 170 168 167 167 167 165 163 161 162 166 171 180 192 207 225 243 262 275 282 288 290 292 293 294 295 296 294 293 292 291 289 286 284 282 280 278 275 272 270 269 266 263 260 257 254 251 248 246 245 245 244 243 242 242 243 241 238 235 235 237 237 236 236 237 237 236 232 227 223 220 213 207 209 214 210
229 222 210 194 185 182 181 187 188 179 173 171 171 171 169 166 165 164 165 168 174 182 194 213 236 257 270 278 286 291 292 294 295 295 297 299 298 297 296 294 292 290 287 285 283 280 277 273 271 269 265 262 259 257 255 253 250 247 245 244 244 244 242 241 241 240 238 235 233 235 235 235 235 235 236 236 233 230 227 224 221 213 210 211 207
214 192 178 177 180 180 187 199 196 180 175 176 173 172 171 168 166 166 166 168 175 187 203 223 248 266 273 280 290 295 295 295 296 298 302 303 302 302 301 297 295 293 291 289 286 282 279 276 273 269 266 263 261 259 257 255 252 250 246 243 243 244 244 242 241 240 238 235 233 232 233 233 232 232 234 234 231 228 225 223 221 216 212 211 210
182 171 170 176 181 182 179 177 182 195 197 185 176 174 172 168 167 166 165 170 180 193 211 233 257 268 276 288 295 297 297 298 300 303 307 308 308 307 305 302 298 296 293 290 286 282 280 278 274 271 267 264 262 261 259 257 254 252 248 243 241 241 242 243 242 243 241 236 232 232 231 230 229 229 230 230 228 225 223 221 220 216 213 212 214
160 163 165 164 167 177 170 161 189 207 189 179 175 172 168 165 164 165 168 178 190 202 221 241 265 274 280 294 298 299 301 301 302 305 309 312 313 312 308 304 300 297 293 289 286 282 279 276 273 271 269 266 264 261 260 258 255 252 249 244 240 239 241 241 241 243 245 240 233 231 231 230 228 226 226 225 225 223 221 220 219 213 209 209 210
155 156 157 155 158 172 185 205 228 195 177 179 175 169 166 164 164 168 173 184 197 217 235 250 270 278 287 299 300 300 303 302 303 306 310 314 316 316 313 308 302 297 292 288 285 280 277 274 272 271 269 268 265 262 259 258 256 253 250 245 240 238 239 240 239 240 243 244 240 233 231 231 229 225 223 222 221 219 214 213 213 209 205 206 208
151 149 144 139 141 171 237 261 257 222 200 190 177 169 167 166 168 173 179 188 206 235 257 268 273 281 294 300 299 301 303 303 305 308 310 315 318 319 317 311 303 296 291 288 285 280 277 275 273 272 271 270 267 264 260 257 255 252 249 243 238 236 237 238 237 237 239 242 242 237 232 231 231 227 223 221 220 218 209 204 202 197 194 196 200
138 136 130 124 133 205 276 290 277 248 217 191 174 167 166 168 172 179 184 195 217 247 273 280 279 285 296 299 299 302 303 303 307 310 313 317 319 318 316 311 305 300 296 293 290 286 282 279 276 274 273 272 270 266 261 257 253 249 245 240 235 234 235 236 235 235 236 237 238 237 233 231 231 229 225 221 217 213 204 192 184 179 179 183 186
133 133 136 138 142 241 290 297 279 247 213 187 172 167 169 172 176 184 191 206 230 259 284 291 288 289 296 300 300 302 304 305 308 314 317 318 318 318 317 314 308 304 301 298 295 291 286 281 278 276 274 272 270 267 262 257 251 246 241 236 233 233 234 234 234 234 234 234 235 236 236 232 231 230 226 219 212 206 197 185 180 176 172 173 176
135 134 136 136 135 263 283 283 268 236 203 180 170 170 174 176 178 186 198 218 245 275 300 299 293 291 295 302 303 303 305 307 310 316 319 318 318 319 319 316 312 308 305 301 298 295 290 285 281 278 276 273 271 269 265 258 250 244 239 234 232 233 232 232 232 231 230 231 232 234 236 232 231 232 225 215 210 204 194 189 186 178 170 171 174
135 124 119 173 205 234 257 263 258 227 191 173 171 175 177 177 178 187 201 221 244 288 310 300 291 292 297 305 309 308 309 311 313 317 319 318 318 319 319 318 316 312 307 303 301 298 294 290 285 283 280 276 274 273 269 260 250 244 239 233 231 231 229 229 230 228 227 228 227 229 230 226 227 232 224 211 208 203 196 193 191 183 178 176 174
114 103 102 237 225 233 257 264 251 207 180 170 174 179 177 176 178 188 201 207 223 296 303 296 295 299 306 315 318 315 314 314 315 318 319 318 317 319 320 320 317 314 310 308 307 304 298 293 290 288 286 282 277 275 273 263 251 244 240 234 232 232 229 225 226 225 225 226 224 225 226 221 219 222 216 206 205 204 199 197 195 193 190 184 175
103 104 126 241 248 248 241 242 223 192 176 172 179 181 175 175 180 185 187 172 153 291 290 298 306 311 318 323 323 320 318 318 319 321 321 318 317 319 321 321 318 316 315 315 314 309 302 298 296 294 292 289 284 279 274 266 255 248 242 236 232 231 227 221 221 224 224 223 224 225 223 213 207 206 204 204 206 205 200 196 196 196 193 185 175
89 110 119 141 271 258 230 213 201 186 177 176 183 182 174 175 178 171 160 154 147 304 296 304 313 322 326 326 325 323 321 321 323 324 322 319 318 320 322 323 322 321 322 322 320 315 308 304 303 301 299 296 291 285 280 273 262 253 246 239 233 229 224 219 221 226 223 220 219 217 210 202 199 200 202 205 205 202 197 193 192 191 187 181 172
61 48 76 344 270 259 229 207 190 182 180 180 183 181 174 171 167 154 148 152 149 295 301 310 320 326 328 329 327 325 323 323 325 326 324 321 321 322 324 326 328 328 328 327 326 322 316 311 308 307 304 302 298 292 289 285 272 256 246 240 234 229 223 218 220 225 223 214 209 205 199 196 198 200 202 202 198 194 191 189 187 184 179 174 166
70 35 25 310 274 257 229 206 182 179 183 181 182 182 174 163 154 146 141 139 129 51 318 326 331 330 330 330 327 326 327 326 326 327 327 324 323 326 330 333 335 334 333 333 332 329 323 317 314 311 309 308 306 302 301 299 284 263 247 238 233 229 223 217 216 220 217 207 200 197 194 194 194 194 193 190 186 186 187 186 183 178 173 168 162
74 55 33 325 269 233 219 198 178 179 181 179 182 184 171 156 146 138 129 123 109 44 350 344 340 335 331 328 328 331 332 329 327 329 329 327 326 329 335 340 340 339 338 338 335 330 325 322 318 315 314 311 309 311 314 314 300 273 250 236 228 222 215 209 207 206 199 191 186 186 185 182 182 182 180 177 176 177 178 177 175 171 167 163 159
67 59 48 1 245 210 202 188 177 175 176 176 180 179 166 152 141 132 125 115 92 46 13 357 346 338 333 330 332 333 330 329 331 331 332 334 333 331 335 339 339 339 340 340 337 334 332 328 323 321 320 317 312 314 321 326 321 285 230 207 198 194 191 188 182 174 168 166 166 167 166 164 164 166 168 167 166 164 163 162 162 162 160 158 157
72 62 48 29 355 217 201 191 181 173 172 174 173 170 163 151 137 130 126 112 87 53 22 3 349 342 339 335 333 331 328 330 333 332 333 339 340 336 335 335 335 337 340 340 340 342 341 336 331 328 327 322 318 321 327 328 326 300 189 167 162 165 169 167 161 153 149 148 147 146 145 145 146 146 146 148 149 150 152 152 152 152 152 151 151
70 46 31 30 25 9 193 184 174 166 167 168 164 163 163 153 138 129 124 112 95 76 38 8 354 350 346 339 332 332 332 331 331 332 334 339 340 338 338 336 333 337 344 348 349 348 348 347 343 336 334 332 326 324 329 326 315 286 225 174 162 162 165 165 163 157 146 138 135 134 134 135 136 135 134 136 138 139 141 143 145 145 144 144 145
35 14 14 23 27 41 121 143 144 149 156 156 155 159 161 151 139 130 123 117 110 93 57 24 14 7 354 342 335 337 336 332 330 331 333 336 338 339 342 342 339 338 347 355 358 358 2 5 1 351 351 353 342 327 324 321 298 260 241 199 173 169 167 162 159 154 146 137 133 133 135 136 137 136 137 137 138 138 138 137 139 141 141 142 142
2 3 13 25 40 68 100 115 121 131 140 147 153 159 158 146 137 131 127 127 119 89 61 42 32 18 355 339 337 339 337 333 333 333 333 336 339 341 345 350 350 350 352 356 1 6 12 18 16 9 9 14 11 2 349 330 283 222 213 193 173 168 164 158 154 149 140 134 136 137 138 140 139 138 139 140 140 139 139 139 138 139 141 142 141